Location: Carabito
(9.8355°N, 67.9249°W)
Time: 00:17:22
(UTC+00:00)

Cosmos 1821 Rocket - Pass Details

Date: 23 May 2024
Orbit: 944 x 1004 km, 82.9° (Epoch: 15 June)

Event Time Altitude Azimuth Distance (km) Brightness Sun altitude
Exits shadow 08:43:09 - 179° (S) 3,583 6.7 -20.4°
Reaches altitude 10° 08:45:27 10° 177° (S) 2,715 6.1 -19.9°
Maximum altitude 08:51:38 73° 93° (E) 1,002 4.2 -18.5°
Drops below altitude 10° 08:57:44 10° 9° (N) 2,674 6.8 -17.2°
Sets 09:00:12 0° 7° (N) 3,613 7.5 -16.6°
